Wind_Speed
36 38 39 41 43 45 47 49 51 53 55 57 57 57 57 56 54 51 49 48 48 47 44 38 33 30 27 25 25 26 26 25 18 8 2 3 9 14 16 18 19 21 22 24 25 24 21 18 16 16 18 17 15 14 14 13 13 14 15 15 15 16 16 17 18 17 18 16 13 15 18 14 7 8 9 9 13 16 18 19 18 17 16 16 18 21 22 21
35 37 39 41 42 44 46 47 50 52 54 57 58 58 58 58 56 53 51 49 48 48 45 40 34 30 27 26 26 26 26 22 15 6 0 4 10 14 18 19 20 23 24 24 23 20 17 14 13 15 16 15 13 12 13 14 14 13 14 14 14 16 15 15 16 15 16 14 13 14 14 10 5 7 9 11 12 13 15 16 15 14 13 14 16 19 23 23
34 36 38 40 42 44 45 47 48 51 53 56 58 58 58 58 58 55 52 50 49 48 46 41 35 31 28 27 27 27 25 19 11 4 1 5 10 15 18 18 19 22 21 21 20 17 13 12 12 14 14 13 10 10 11 13 14 13 13 13 13 15 15 14 15 16 15 12 11 11 11 9 7 6 8 11 12 12 14 14 13 13 12 13 14 16 19 22
33 35 37 39 41 43 45 46 47 49 52 54 57 58 59 58 59 58 54 51 49 49 47 43 37 33 30 29 28 27 23 16 9 3 2 6 10 15 18 17 18 19 18 19 18 15 12 11 11 12 12 10 8 7 8 10 13 13 12 12 11 12 14 13 13 15 15 13 11 10 10 9 9 8 7 10 13 14 14 13 13 14 14 14 14 15 16 18
32 34 36 38 40 42 45 46 47 48 51 53 56 58 59 59 59 59 56 52 50 49 48 45 39 34 32 31 29 26 21 15 8 3 3 6 10 16 17 16 17 17 15 15 14 13 11 10 10 10 9 8 8 6 6 7 11 12 12 12 12 11 12 11 12 13 14 14 13 12 11 11 11 9 8 9 12 15 16 15 15 15 15 16 16 16 16 16
32 33 35 37 39 42 44 46 47 48 50 52 54 57 59 59 59 60 58 54 51 50 49 46 40 36 33 32 29 24 19 14 8 4 5 7 12 17 17 15 16 15 13 13 12 11 10 9 8 7 6 6 7 7 7 7 8 11 10 11 12 11 11 11 12 13 14 14 13 12 11 11 11 9 7 9 11 15 17 17 17 16 16 16 18 19 19 18
32 33 35 36 38 40 43 45 47 48 49 51 53 56 58 59 59 60 60 56 52 50 50 48 42 37 34 32 28 23 18 14 9 6 7 10 15 19 17 16 15 14 14 14 13 12 11 10 9 6 2 3 4 6 6 5 5 6 5 6 9 10 10 10 10 11 13 14 13 11 10 11 11 9 7 9 12 14 16 18 18 17 17 16 17 19 20 20
33 33 34 36 38 40 41 43 46 48 49 50 52 54 57 59 59 59 60 58 53 51 50 49 44 38 35 32 27 23 19 14 9 7 9 12 16 19 18 16 14 14 13 12 12 10 11 11 10 7 3 2 2 3 3 2 3 3 3 2 2 5 7 7 7 8 10 11 12 11 11 12 12 10 8 8 12 13 15 16 17 17 17 17 17 17 18 18
33 34 34 35 37 39 40 42 44 47 48 49 50 53 55 58 59 59 60 59 56 52 50 50 46 40 36 33 28 24 20 14 10 7 10 13 16 18 18 16 15 15 13 12 11 10 10 11 10 8 5 5 6 6 6 8 9 9 8 7 5 1 4 5 4 6 8 9 11 11 12 13 13 12 10 9 10 12 13 15 16 16 16 17 18 19 19 19
34 34 34 34 36 38 39 41 43 45 48 49 50 51 54 57 59 58 59 60 58 53 50 50 48 43 38 34 29 26 21 14 10 8 11 15 16 17 18 17 16 14 12 11 10 8 8 9 9 8 7 8 9 9 9 10 11 10 9 10 8 3 4 6 4 4 8 10 11 11 11 12 12 12 10 9 10 11 13 14 14 15 15 15 15 17 18 19
33 34 35 34 35 37 39 40 42 44 47 49 49 50 52 55 58 58 58 59 59 55 51 50 49 45 40 36 32 28 22 15 10 9 12 15 16 16 18 17 15 13 12 11 10 8 5 6 8 9 10 10 10 8 8 9 10 9 9 10 10 6 4 6 5 3 5 10 12 12 12 11 10 10 10 11 12 12 13 13 13 13 13 12 12 12 14 15
33 34 34 34 35 36 38 39 41 43 46 48 49 49 50 53 56 58 57 58 60 57 52 50 50 48 42 38 34 31 24 16 10 8 11 13 14 16 17 16 14 14 12 10 9 8 6 8 11 11 9 9 8 7 7 8 8 9 9 10 10 8 6 5 5 3 3 6 9 10 11 10 8 8 10 12 13 14 13 12 12 12 11 11 11 11 12 13
32 33 34 34 34 35 37 39 40 42 45 47 48 48 49 51 55 57 57 57 59 59 54 50 51 49 44 40 36 32 26 18 11 8 10 12 14 16 16 14 13 12 10 8 8 8 9 10 12 10 7 6 6 7 7 7 8 9 11 11 11 9 6 6 6 5 4 4 4 5 6 5 4 5 7 9 11 12 12 12 11 10 10 11 11 11 12 13
32 33 34 34 34 35 36 38 39 41 44 46 47 48 48 50 53 56 57 56 58 59 56 52 51 50 46 41 37 32 26 20 13 8 8 11 15 16 15 13 10 9 8 7 7 9 9 9 9 7 5 4 5 7 7 8 9 10 11 12 11 9 6 6 8 7 5 3 3 3 3 2 2 3 5 7 8 9 10 11 10 10 10 11 11 11 11 11
32 32 33 34 34 35 35 37 38 40 42 45 47 47 47 48 51 54 56 56 56 58 58 54 51 51 48 42 38 32 26 20 14 8 7 10 13 14 13 11 8 7 7 7 9 9 7 6 6 5 4 4 5 6 7 8 10 9 10 11 10 8 7 8 9 9 7 5 3 2 1 0 3 4 5 6 6 6 7 9 10 10 10 10 9 7 7 6
30 31 32 33 34 34 35 36 37 39 41 44 46 46 46 47 49 52 54 55 55 56 58 57 53 51 48 44 40 33 26 20 13 9 7 7 9 11 12 11 8 6 5 7 9 8 5 4 6 6 5 5 5 5 6 7 9 9 8 9 8 7 6 7 9 9 8 7 5 3 3 3 4 3 1 1 1 3 4 6 6 7 7 6 5 4 4 4
28 30 31 32 33 34 34 35 36 38 40 43 45 45 45 46 47 50 52 54 54 55 57 58 55 51 48 45 42 35 27 19 14 11 10 8 4 7 11 10 7 5 5 4 5 6 6 5 6 7 6 6 6 6 5 5 7 8 7 7 8 7 6 5 7 8 8 8 7 7 7 6 5 6 6 5 4 4 4 4 4 4 5 5 5 4 5 5
27 28 30 31 32 33 34 34 36 37 39 42 44 44 44 45 45 48 51 53 54 54 55 57 56 51 48 46 43 38 30 22 16 13 12 12 6 4 9 9 6 3 3 3 3 5 7 6 6 7 7 7 7 6 5 6 7 6 5 7 8 9 9 7 7 8 9 10 9 9 8 7 8 8 8 6 5 5 4 5 5 5 5 6 5 5 5 6
26 28 29 30 31 32 33 34 35 36 38 41 43 43 43 44 44 45 48 51 53 53 54 56 57 53 49 46 44 40 33 26 20 14 12 12 7 4 7 6 5 3 3 4 4 6 8 9 9 10 10 8 7 6 5 6 7 4 4 7 8 10 10 9 8 9 10 10 10 10 9 7 7 7 7 6 6 5 5 6 6 5 5 6 6 5 5 5
28 29 29 30 30 31 32 33 34 35 37 40 42 42 42 42 42 43 46 49 51 52 52 55 56 55 51 47 45 42 37 30 24 17 12 11 7 3 5 4 4 2 3 4 5 7 9 11 10 9 8 7 6 6 6 6 6 4 4 6 7 9 10 10 10 11 10 9 10 10 9 7 7 7 6 6 5 5 6 8 7 6 5 5 5 4 4 3
31 32 31 30 31 31 31 33 34 35 36 38 41 42 41 41 41 42 44 47 49 50 51 53 54 55 53 48 44 43 39 33 27 21 14 10 6 1 2 2 3 3 2 2 4 5 9 9 7 7 9 8 7 7 7 8 9 8 6 6 6 7 10 9 10 11 11 11 11 11 11 9 8 7 6 6 6 6 7 7 7 6 5 5 5 4 3 3
31 34 33 32 31 31 31 32 33 34 35 37 40 41 40 40 40 40 42 44 46 47 48 50 51 52 53 50 46 43 41 36 30 24 17 11 6 2 3 3 2 2 2 2 3 5 6 6 4 7 9 8 8 9 9 9 10 11 10 8 6 5 7 8 9 11 11 12 12 12 11 10 9 8 8 8 7 7 7 6 6 7 5 4 4 4 4 3
31 33 33 33 31 31 31 31 32 33 33 36 38 40 39 39 38 39 40 42 44 45 45 46 48 50 51 52 50 45 43 40 33 27 20 13 8 5 4 5 3 2 3 3 4 4 4 5 4 6 6 6 8 10 11 11 9 11 12 11 9 6 6 8 8 9 9 11 11 12 12 12 11 10 9 8 8 8 7 6 6 6 5 5 5 5 4 4
31 32 33 33 32 31 30 30 31 32 32 34 37 39 38 38 38 37 38 40 41 42 43 45 47 49 50 52 54 49 44 41 37 31 24 17 13 9 6 4 3 4 4 2 3 4 6 6 4 5 5 4 6 10 12 11 8 9 10 12 11 10 10 9 8 8 7 8 10 12 11 12 12 11 9 8 8 8 7 6 6 5 6 6 6 5 4 4
30 31 32 32 31 30 30 30 30 30 31 33 36 37 37 37 37 36 37 38 40 41 44 45 46 47 49 51 54 53 47 43 40 36 30 23 19 15 10 7 3 5 5 1 1 4 6 6 5 3 3 4 6 10 11 9 6 7 9 12 12 11 11 9 9 8 6 6 9 10 10 11 12 12 10 8 7 7 7 6 5 5 6 7 7 6 5 4
30 30 31 31 30 29 28 29 29 29 30 32 34 35 35 35 36 36 36 38 40 41 43 44 44 45 48 50 52 53 50 45 41 38 35 30 25 21 15 10 6 3 3 1 1 2 3 4 2 1 2 3 6 8 9 7 5 6 9 12 11 10 10 10 10 9 6 6 7 8 8 10 13 12 10 8 7 6 6 5 5 6 7 8 7 6 5 5
30 30 30 29 27 27 27 27 27 28 29 31 32 33 34 34 34 34 35 36 38 39 41 42 43 44 46 48 49 51 51 49 45 41 38 35 31 26 19 13 9 4 2 2 2 2 1 2 1 1 2 4 5 7 8 7 6 7 9 9 8 8 8 9 8 7 7 7 7 7 7 9 11 13 11 9 8 7 6 6 6 7 8 8 8 7 6 6
30 29 28 27 26 27 26 25 25 27 29 30 30 31 32 32 32 33 33 34 35 37 39 40 41 43 44 46 47 49 51 51 50 45 41 38 35 30 23 17 13 8 3 3 4 4 3 1 2 3 4 5 5 6 7 7 6 7 9 7 5 5 5 5 5 4 4 5 6 6 7 7 9 12 13 11 10 8 7 7 7 9 9 8 8 8 8 8
31 29 28 27 27 28 27 26 25 26 28 29 29 29 31 31 31 32 32 33 34 36 38 39 40 42 43 44 46 48 49 50 52 50 45 40 37 33 28 22 17 12 6 3 4 5 5 2 5 6 6 6 4 4 6 7 5 5 5 5 4 4 3 3 2 3 4 5 7 6 6 5 7 10 12 13 12 10 8 8 9 10 11 10 9 9 9 10
32 30 29 28 28 28 27 25 25 26 27 28 28 28 29 30 30 31 31 32 33 35 37 38 39 41 41 42 44 46 47 48 50 52 50 45 40 36 33 28 21 17 11 4 4 6 7 5 6 8 6 4 3 1 4 4 2 2 2 3 2 2 3 2 2 2 3 5 7 7 5 4 6 9 11 13 14 12 10 9 10 11 12 11 10 10 10 10
33 32 30 29 28 28 27 25 25 25 26 27 27 27 28 29 30 30 30 31 33 34 35 37 38 39 40 41 42 44 46 47 48 49 51 50 45 40 36 33 27 22 16 9 6 6 9 9 8 8 6 4 4 2 2 1 2 1 2 2 1 1 2 2 1 2 3 5 6 6 4 5 7 9 10 12 14 14 12 10 10 11 11 11 10 9 10 11
35 33 32 31 29 27 27 26 25 26 26 27 27 26 27 28 29 29 30 30 31 33 34 36 37 38 38 39 40 42 44 46 47 47 49 51 50 44 39 35 32 27 21 14 11 8 7 11 11 10 7 5 6 4 2 3 4 3 1 2 1 2 2 3 3 2 3 4 5 6 5 6 7 7 9 10 12 14 13 11 10 10 10 10 9 9 9 10
37 35 34 32 29 28 27 27 26 26 26 26 26 26 26 28 28 29 29 29 30 31 33 35 37 37 37 38 38 40 42 44 46 46 47 49 51 49 45 39 35 31 26 19 14 13 9 9 12 13 11 8 8 7 6 5 5 4 3 2 1 0 1 3 4 3 3 2 4 5 6 6 5 5 7 8 10 12 12 12 11 10 10 10 10 10 10 10
39 37 35 33 30 28 28 28 27 27 27 26 26 26 27 27 28 28 28 29 29 30 31 34 35 36 36 36 37 39 40 42 44 46 46 47 49 50 49 45 40 35 31 25 19 15 13 9 10 12 12 11 10 10 9 8 7 5 5 5 6 5 3 5 6 5 4 4 5 4 4 4 3 4 5 6 8 8 9 11 11 11 11 11 10 10 10 10
40 38 37 35 31 29 29 29 28 27 27 27 25 26 27 27 27 28 28 28 28 28 30 32 33 33 34 34 35 36 39 40 42 44 45 46 47 48 50 49 46 41 36 31 24 19 16 12 11 11 11 12 13 12 12 11 11 9 8 7 8 9 7 6 8 8 6 6 6 4 2 3 3 5 6 6 6 6 6 8 10 11 12 12 11 12 12 12
40 38 37 36 32 30 29 29 29 28 28 27 26 26 27 26 27 28 27 28 28 27 28 30 30 31 32 32 33 35 37 39 40 42 44 45 46 47 48 49 49 47 42 36 30 24 19 15 12 12 11 13 14 15 14 13 14 13 12 10 9 10 9 7 10 12 9 7 7 6 4 2 2 5 7 8 8 8 7 7 9 11 13 14 14 15 15 15
39 38 37 36 34 32 31 30 29 29 28 28 27 27 26 26 27 27 27 27 27 26 26 27 28 29 30 31 32 33 35 37 39 40 42 44 45 46 47 48 49 49 47 43 36 30 24 19 15 13 12 13 15 16 16 16 16 16 15 13 12 12 12 11 11 13 13 11 8 6 5 3 4 4 7 9 10 10 9 8 10 13 14 16 16 16 16 17
39 37 36 36 34 34 33 32 30 29 29 29 28 28 27 26 27 27 27 27 26 25 25 26 26 27 28 29 30 32 34 36 37 39 41 43 44 45 46 47 48 49 49 47 44 37 30 24 19 15 13 14 16 18 18 18 19 19 17 16 15 15 15 15 15 13 14 14 11 7 7 8 9 7 7 9 9 9 10 10 11 12 14 17 17 16 16 17
39 37 36 35 35 35 35 34 33 32 31 30 29 28 27 27 27 27 27 27 26 25 24 24 25 26 27 28 29 31 33 35 36 38 40 41 43 44 45 46 47 48 48 48 47 44 37 30 25 19 15 14 15 18 21 21 22 23 22 20 18 17 17 17 17 15 15 14 12 10 9 10 11 10 9 9 9 10 10 10 11 12 14 17 17 16 16 16
40 38 37 36 35 36 36 36 36 35 33 31 31 29 28 28 28 27 27 27 26 25 24 23 24 25 26 28 29 30 32 34 36 37 38 40 41 43 44 45 46 47 48 48 48 47 43 37 31 25 19 15 14 16 19 22 25 26 25 24 22 20 19 19 19 19 18 17 15 13 11 11 11 12 12 12 12 13 11 10 11 12 14 16 16 17 17 18
40 39 38 37 36 37 37 38 38 36 35 33 32 30 30 29 28 27 27 27 26 25 24 23 23 24 25 27 28 29 31 33 34 36 37 39 40 42 43 44 45 46 46 47 47 48 47 43 37 30 24 19 16 15 17 19 22 26 27 27 25 23 21 21 21 21 21 20 18 16 14 13 12 12 13 14 14 14 12 12 13 13 12 14 17 18 18 19
41 40 40 38 36 37 37 37 38 37 36 34 32 32 33 32 29 28 28 27 26 25 24 23 22 23 24 25 27 28 29 31 33 34 36 38 39 41 42 43 44 45 46 46 46 47 47 46 43 37 29 24 22 19 17 18 19 23 26 28 28 27 25 25 24 23 22 21 20 18 16 15 15 14 15 16 16 16 16 16 17 16 14 15 17 18 19 20
42 41 40 38 36 36 37 37 38 38 36 34 34 35 35 34 32 30 28 27 26 25 24 23 22 23 23 24 25 27 28 30 32 33 34 36 38 40 41 42 44 45 45 46 46 46 46 46 46 43 36 30 29 25 21 19 19 20 23 26 29 29 30 29 28 27 25 24 23 21 19 18 18 17 17 18 18 19 20 20 19 19 17 17 17 19 21 22
45 43 41 39 37 36 37 37 38 38 37 36 35 35 36 35 33 30 29 28 26 24 24 24 24 24 23 23 24 26 28 30 31 31 32 34 36 38 40 42 43 44 45 45 45 45 45 45 46 45 42 37 33 30 26 23 21 21 22 23 25 27 31 32 32 31 29 27 26 25 24 22 21 20 20 21 21 21 22 21 21 21 21 20 19 20 21 22
48 46 44 42 40 37 37 38 40 40 38 37 36 36 37 36 34 32 30 28 26 25 25 26 26 25 24 23 24 26 28 29 30 31 31 32 35 37 38 41 42 43 45 45 45 44 44 44 45 45 45 42 38 34 30 27 25 22 22 23 23 24 28 31 33 33 32 31 30 29 28 26 25 24 23 23 24 24 24 23 23 24 25 23 22 21 21 21
51 48 46 45 43 40 38 40 41 41 39 37 37 37 38 38 36 34 31 28 27 27 27 28 28 26 25 24 25 26 28 29 31 31 31 32 34 35 37 39 41 42 43 44 45 45 44 43 43 44 45 44 42 37 32 30 29 26 23 22 22 22 25 29 32 32 33 34 34 33 32 31 29 28 26 26 26 26 25 25 25 26 27 27 25 23 23 22
53 51 48 47 46 43 41 41 41 41 40 39 39 39 39 39 37 33 30 30 30 30 30 31 30 27 26 25 26 26 27 28 31 32 31 32 34 35 36 38 40 41 42 43 45 46 45 43 43 43 44 44 44 41 35 31 31 30 28 25 22 22 25 27 27 27 29 32 33 33 34 34 33 32 30 30 30 29 28 26 26 27 28 29 29 27 25 25
55 54 52 51 50 47 44 43 43 43 42 41 41 40 39 38 36 34 32 32 33 33 32 32 31 28 26 27 27 26 26 29 31 32 32 33 34 35 35 37 39 40 41 42 44 45 45 43 43 43 43 43 44 43 39 33 32 32 32 29 26 25 27 27 25 23 24 28 30 31 33 33 33 33 33 33 34 33 32 30 30 29 28 29 31 31 30 29
57 56 55 54 52 50 48 47 46 45 43 42 42 41 39 39 38 36 35 35 34 34 33 32 31 29 27 28 28 27 27 30 32 32 33 34 35 35 35 36 38 40 41 41 43 44 44 43 43 43 43 43 43 44 41 37 35 35 33 33 32 30 28 28 25 22 22 25 28 29 31 32 31 32 33 33 34 34 34 33 34 33 31 31 32 34 34 33
61 59 57 55 54 52 50 49 48 46 45 44 43 42 41 41 40 39 37 36 36 35 34 33 33 31 29 29 29 28 29 33 33 33 33 34 36 36 36 37 38 39 40 41 42 43 43 43 42 43 43 43 42 43 42 39 39 39 36 34 34 32 30 28 27 24 23 24 25 27 30 31 30 30 31 31 32 33 34 34 34 34 33 33 34 35 36 36
63 62 60 57 55 54 53 52 50 49 47 46 45 45 43 42 42 40 38 37 36 35 34 34 34 33 31 31 30 29 32 34 35 34 34 35 37 38 38 39 39 39 40 41 42 43 43 43 42 42 43 43 42 42 42 41 42 42 38 35 33 33 32 30 28 27 26 25 23 23 26 27 27 29 30 30 30 32 34 34 33 33 34 35 37 39 38 37
65 64 63 60 58 57 55 54 53 51 50 48 47 46 45 44 43 41 40 39 38 37 35 35 37 36 34 33 32 32 34 36 36 36 36 37 38 38 39 40 40 40 40 41 43 44 44 44 43 42 42 42 42 41 42 42 44 43 41 38 36 34 33 31 29 28 27 25 23 22 22 22 23 26 27 28 27 29 31 32 32 31 32 34 37 39 40 38
Wind_Direction
17 18 19 19 20 20 21 21 20 21 21 20 20 20 21 21 19 18 17 16 15 14 12 11 10 10 11 8 5 0 357 356 354 359 18 130 128 123 115 110 109 108 113 121 128 131 132 132 136 154 164 157 151 154 159 166 170 174 177 178 183 186 189 192 188 181 173 167 182 187 176 167 173 218 222 215 223 226 222 221 226 230 233 234 229 224 220 219
14 15 16 17 18 19 20 20 19 19 20 20 20 20 20 21 20 19 18 17 16 14 13 11 11 11 11 8 5 360 357 355 353 357 110 145 136 128 119 118 119 116 117 123 127 130 132 135 148 163 161 150 149 160 174 183 181 181 184 183 191 196 197 198 194 191 188 183 189 190 184 184 205 229 225 222 229 232 224 218 220 227 230 230 228 225 223 224
10 12 14 15 16 17 18 19 18 18 19 19 19 19 19 20 21 20 19 18 17 15 13 12 11 11 11 9 4 360 357 356 354 353 162 148 140 130 124 125 128 127 127 133 136 136 141 148 160 164 152 144 149 167 186 193 191 191 190 186 195 207 209 211 205 202 204 200 198 200 199 207 222 229 229 226 229 233 227 220 220 225 227 226 227 227 228 230
8 9 11 13 14 16 17 18 18 17 18 18 18 18 18 20 20 20 20 19 18 16 14 12 11 12 11 9 5 0 359 360 359 356 135 145 141 131 130 132 135 141 145 145 141 139 145 151 156 158 150 146 154 170 188 196 200 203 202 198 198 209 217 224 224 218 216 211 205 208 215 224 228 231 234 226 224 227 227 224 219 219 223 225 224 226 230 235
5 6 8 10 12 14 15 17 17 17 17 17 17 18 18 19 20 21 20 19 18 17 15 13 12 12 11 9 6 2 3 8 7 20 116 142 138 132 135 136 139 147 148 145 145 145 148 149 150 156 159 164 170 179 199 205 209 211 214 215 210 209 217 229 241 238 228 218 213 215 223 232 233 235 239 230 224 222 224 225 222 222 226 228 227 227 230 235
3 4 6 8 10 12 14 16 17 17 16 16 16 17 17 18 19 21 20 20 19 18 16 14 13 13 12 11 8 7 12 18 21 54 116 137 133 134 139 142 144 144 136 133 141 144 140 135 134 146 169 185 189 198 214 225 227 221 219 223 219 217 225 235 244 243 235 225 222 224 228 234 236 236 240 236 230 224 224 227 231 233 235 236 234 232 235 240
1 2 4 6 8 11 13 15 17 17 15 15 15 16 17 17 19 20 21 20 19 18 17 16 15 15 14 13 13 16 22 30 40 81 124 134 133 138 145 148 147 143 136 132 133 134 128 116 101 97 143 197 199 203 214 232 238 224 220 222 217 218 227 236 239 238 234 229 230 231 228 235 241 240 241 237 233 229 228 231 236 239 243 244 240 238 242 246
1 1 2 4 6 9 11 13 16 16 15 14 14 15 16 17 18 20 21 20 20 19 18 17 16 16 16 16 19 26 33 42 57 95 130 135 138 145 151 149 142 136 132 127 121 116 110 98 84 76 86 101 109 148 168 133 103 96 72 68 187 212 220 224 231 234 232 232 235 236 232 236 241 243 245 238 232 231 232 235 239 244 248 247 245 245 246 249
1 1 2 3 5 7 10 12 14 15 15 14 13 14 14 16 17 19 21 21 20 19 19 18 17 17 19 21 25 33 41 50 66 100 131 137 142 147 148 145 135 125 117 113 109 98 90 84 73 66 77 94 91 99 111 101 88 75 65 62 65 144 207 205 217 225 224 226 231 235 234 236 241 246 250 241 234 236 239 243 246 249 253 255 254 254 254 256
1 1 2 2 3 5 7 10 12 14 14 13 13 13 13 15 16 18 20 21 21 20 19 20 19 18 20 24 29 38 46 52 69 104 134 139 142 141 139 136 127 116 107 108 108 98 88 81 74 67 70 90 93 89 89 87 82 71 61 55 53 70 183 196 196 203 208 211 219 226 229 235 244 252 253 244 241 248 252 252 252 254 258 264 268 265 261 262
360 1 1 2 2 3 5 8 11 12 13 13 12 12 12 14 15 17 19 21 21 21 20 21 21 20 21 25 31 39 46 49 66 107 137 140 139 136 133 130 121 115 113 113 110 104 92 79 84 81 75 85 91 76 64 67 68 65 59 49 48 66 133 183 183 166 193 204 213 222 227 233 243 251 250 243 244 255 261 259 259 261 263 268 275 274 268 266
356 358 360 0 0 1 2 5 9 11 12 12 12 11 12 13 15 16 18 20 21 21 21 22 22 21 22 26 31 38 42 43 55 98 135 137 134 132 130 126 119 115 112 108 104 95 85 85 89 88 83 90 89 66 50 53 53 50 48 41 40 56 93 135 154 153 168 191 209 219 224 230 238 247 246 245 250 256 260 260 261 265 265 267 274 279 279 278
351 354 356 358 358 359 360 2 6 9 10 11 11 11 11 12 14 16 17 20 21 22 21 23 24 22 22 26 31 36 39 39 44 82 124 128 129 133 132 125 115 107 101 98 93 87 91 95 92 88 84 89 89 72 53 45 41 40 37 31 28 37 70 99 108 122 140 160 185 195 204 215 222 239 249 251 256 257 256 257 262 268 269 272 278 284 288 290
345 348 352 355 356 357 358 359 3 7 9 10 10 10 11 11 12 15 17 18 21 22 22 23 25 23 23 26 30 35 36 35 40 67 107 120 128 135 134 123 110 102 100 97 94 97 102 99 91 82 67 58 65 62 46 29 30 34 27 22 24 30 48 74 82 87 95 113 143 165 173 179 212 262 266 263 265 263 261 263 269 281 286 287 289 292 295 299
339 343 347 351 353 355 356 357 1 5 7 8 9 9 10 10 11 13 16 18 20 23 22 24 26 25 24 26 31 35 35 34 38 54 88 118 129 134 132 126 119 116 114 110 109 109 105 93 84 76 55 36 37 42 28 15 20 23 16 19 33 45 50 58 62 66 70 71 83 134 160 341 318 298 278 269 272 276 279 278 280 289 297 299 299 301 307 314
337 340 343 347 350 352 354 355 359 3 5 7 7 8 9 10 10 12 15 17 19 22 23 24 26 25 24 26 31 35 37 36 36 43 58 102 130 137 136 134 130 128 136 130 122 114 90 57 52 53 44 26 27 22 5 10 19 14 12 25 42 51 53 54 52 60 68 58 47 51 38 5 351 354 353 317 317 338 327 306 297 301 310 321 327 329 332 333
339 340 341 344 347 349 351 353 356 0 3 5 6 7 8 9 9 10 13 16 19 21 24 25 26 25 24 26 30 33 35 36 35 37 40 49 95 140 141 141 142 140 146 125 107 102 74 39 31 35 33 23 18 5 356 8 11 7 16 24 31 39 49 59 54 57 55 37 30 34 38 41 54 67 67 60 49 25 2 0 9 358 352 356 356 351 341 332
341 341 341 343 345 346 348 350 354 358 1 2 4 5 7 8 9 9 11 15 18 20 23 26 27 26 25 26 29 31 31 31 31 33 32 26 27 140 150 152 154 145 122 72 54 65 49 24 12 9 7 8 2 352 358 0 346 352 28 20 16 31 39 45 49 49 38 30 32 35 42 56 61 65 65 59 48 27 14 27 27 7 353 347 344 342 334 325
343 343 342 343 344 344 345 348 351 355 358 0 2 4 6 7 8 9 10 13 17 19 22 26 27 25 26 26 28 30 29 28 26 26 27 20 20 137 163 165 158 133 61 45 30 33 23 2 353 352 354 1 356 342 342 344 335 340 43 25 13 27 36 42 51 45 30 29 39 41 47 54 49 47 45 41 39 30 25 31 23 2 352 348 345 342 336 332
342 343 342 342 342 342 343 344 347 351 355 358 0 2 4 6 7 8 10 12 15 17 20 26 27 26 26 26 28 30 29 28 25 22 23 22 27 130 170 168 158 118 36 34 37 29 14 360 356 3 15 21 24 17 3 6 9 12 43 30 18 31 41 49 55 44 33 39 48 48 50 45 31 26 21 20 31 36 37 37 27 18 18 13 6 1 358 359
337 338 339 340 340 340 340 341 344 348 352 355 358 360 3 5 6 7 9 12 14 16 18 24 27 27 26 26 28 30 31 29 27 24 20 23 29 304 218 168 147 94 33 14 35 16 6 7 12 33 38 33 36 36 29 33 34 28 35 41 39 45 42 44 52 46 48 62 60 52 50 44 33 27 25 22 26 32 35 35 28 27 32 24 20 27 28 23
331 332 333 335 337 338 338 338 340 344 349 353 355 358 1 4 5 7 9 11 14 15 17 21 25 27 27 27 28 30 31 31 30 29 22 18 23 320 282 239 188 123 212 286 354 353 9 31 39 37 33 32 32 25 20 26 34 40 49 59 70 60 37 42 54 50 56 68 61 49 44 42 38 31 29 26 26 30 30 30 30 30 33 38 45 48 38 25
328 330 329 329 332 335 335 336 337 340 346 350 353 355 358 2 5 7 8 10 12 14 16 19 23 25 26 28 28 29 31 32 31 32 27 17 12 351 305 277 262 228 240 298 353 9 53 66 49 28 23 33 30 17 15 19 37 61 65 65 70 66 56 66 66 51 57 67 59 49 43 41 39 35 31 27 28 30 25 25 29 31 40 51 54 48 35 22
325 328 326 324 326 330 332 334 334 337 343 348 350 353 356 360 3 6 8 9 11 13 15 18 20 22 25 28 29 29 31 33 32 31 30 22 12 6 344 313 291 270 277 321 9 46 66 56 35 20 7 17 14 10 15 19 40 75 78 74 76 82 85 82 64 46 56 67 59 52 46 41 39 37 35 31 31 30 27 32 38 41 47 46 45 42 32 18
322 326 324 322 323 326 328 330 332 335 340 345 347 351 355 358 1 5 7 8 10 12 15 17 18 19 23 26 28 29 31 33 33 32 30 27 20 14 7 359 334 281 287 317 73 61 55 34 10 353 344 349 355 8 17 19 43 83 95 95 94 92 87 73 53 43 53 64 54 48 41 37 38 38 36 31 29 28 30 41 48 46 44 37 36 34 22 4
318 323 322 320 322 325 327 328 329 332 337 341 344 348 353 356 360 3 6 8 9 11 14 16 16 16 20 25 28 29 30 31 33 34 32 29 25 21 14 7 0 305 282 273 144 86 57 39 7 322 326 328 344 11 21 20 44 96 111 109 104 91 74 62 54 50 58 68 53 37 28 32 37 38 36 29 24 27 31 36 39 41 41 37 31 24 12 353
314 319 319 318 321 325 327 327 328 330 334 339 342 347 351 355 358 1 4 7 9 10 12 14 14 15 18 22 26 28 30 31 31 32 32 30 28 25 19 7 359 343 288 259 228 219 135 104 176 235 311 318 337 8 25 32 52 92 109 107 96 81 66 57 53 52 60 64 52 34 22 28 40 45 44 36 30 30 27 22 23 32 37 33 26 16 3 347
309 314 315 315 319 321 324 326 327 328 332 337 341 345 349 353 357 360 3 6 8 9 11 13 13 14 16 19 23 26 29 31 31 31 31 30 29 27 23 13 3 351 311 265 245 223 190 164 258 265 294 298 323 12 43 58 68 96 107 100 73 52 57 60 48 37 34 32 36 36 27 27 36 42 42 35 30 25 18 16 21 26 26 23 16 7 356 348
304 308 309 310 313 315 317 322 324 326 330 336 340 343 346 350 354 357 0 4 6 7 10 12 12 13 15 17 20 23 27 30 31 30 30 30 29 27 24 19 11 0 342 281 256 231 198 218 271 269 288 287 296 21 68 73 65 94 98 75 55 45 68 93 62 28 12 10 20 25 28 32 30 34 37 32 26 20 12 8 11 14 12 10 8 1 352 345
300 303 305 305 307 309 312 317 321 324 328 334 339 341 343 346 350 354 357 0 4 6 8 10 11 11 12 15 18 21 24 28 30 30 30 30 28 27 25 22 16 7 358 328 275 243 213 218 256 266 289 286 271 1 82 74 44 91 70 50 89 91 81 95 82 48 28 19 17 10 9 35 36 32 33 31 25 21 17 10 5 3 2 1 360 357 352 344
295 299 301 301 302 304 307 312 317 321 325 330 336 339 340 343 347 351 355 358 1 4 6 9 10 9 10 13 16 18 22 25 28 28 28 29 29 26 24 22 19 13 6 349 318 273 230 226 245 264 283 275 255 269 94 127 234 200 67 40 37 9 11 6 356 20 41 45 38 25 11 23 29 21 22 29 26 22 21 15 7 359 356 357 356 353 351 346
292 294 297 297 297 299 302 306 311 316 320 325 331 335 336 339 343 347 351 355 359 1 3 7 8 8 9 11 14 16 19 22 25 26 27 28 29 27 25 22 20 17 13 0 340 322 267 238 240 253 265 266 255 247 197 191 217 220 144 94 63 32 8 326 308 346 28 55 54 49 35 24 22 14 20 32 29 25 23 16 9 358 349 350 351 348 346 343
288 290 293 293 292 294 297 301 305 310 315 320 326 329 332 335 339 343 347 351 355 358 1 5 6 6 8 10 12 14 17 19 22 23 24 26 28 28 26 24 21 18 17 10 354 340 317 263 247 252 256 257 251 239 227 210 209 232 227 195 210 143 12 321 312 337 359 20 28 30 21 20 27 18 21 27 24 27 25 16 10 2 355 354 353 349 346 343
284 287 289 288 287 288 292 295 300 305 309 315 321 324 328 331 334 338 342 346 351 355 359 4 5 5 6 8 11 13 15 17 19 20 22 24 26 27 27 26 23 20 18 15 6 351 335 305 271 263 254 243 238 234 232 223 211 233 251 247 256 263 298 320 311 315 323 330 348 359 357 2 13 0 356 0 1 9 18 15 7 359 358 2 0 353 350 346
281 283 284 283 282 283 287 291 295 300 304 311 316 319 324 327 330 334 338 342 347 352 358 2 3 4 6 7 9 11 13 15 17 18 19 21 23 25 26 27 25 22 19 16 11 2 348 325 300 283 259 235 228 230 235 235 227 232 250 259 267 270 283 302 295 294 300 311 323 327 327 344 345 335 332 329 328 334 354 5 357 349 348 351 354 353 352 350
277 278 279 279 278 278 282 286 291 295 300 306 311 315 320 323 325 330 333 337 343 349 356 360 360 2 5 6 7 9 10 13 15 15 16 18 20 22 24 25 26 25 22 19 14 7 357 342 321 301 272 244 232 232 238 243 239 239 247 257 270 273 271 276 284 290 293 294 305 313 317 332 332 332 329 318 314 320 334 348 348 342 337 336 338 342 347 349
272 274 275 276 275 275 277 281 287 291 296 301 307 311 316 319 321 325 328 332 337 344 351 355 356 359 2 4 6 7 7 9 11 12 13 15 17 18 20 22 24 25 24 22 19 12 5 355 341 319 289 260 242 237 242 247 247 246 249 253 261 265 260 257 269 283 287 287 293 301 305 288 270 292 310 308 311 319 327 339 341 336 331 329 331 335 341 343
268 270 272 273 273 272 273 277 282 287 291 297 302 307 311 314 318 321 323 326 330 336 344 350 352 354 358 1 3 4 4 5 8 9 11 12 13 15 17 18 20 22 23 23 22 18 13 5 357 340 310 282 259 247 246 251 253 253 253 253 256 260 258 255 260 273 281 283 283 281 280 277 271 270 282 294 303 310 316 323 328 327 320 318 324 329 334 335
266 267 269 270 270 270 271 274 277 282 288 292 297 303 307 310 314 316 317 321 324 328 336 344 347 349 352 356 359 1 1 2 3 6 8 10 11 12 13 15 17 18 20 21 22 22 18 12 7 358 335 308 282 263 255 256 258 258 257 256 257 261 262 260 262 270 275 277 276 273 273 274 272 267 268 276 281 286 297 309 318 319 308 306 315 320 322 326
264 265 267 268 269 269 270 271 274 279 284 287 293 298 301 305 310 311 313 316 318 322 330 337 341 343 347 351 354 357 358 358 359 2 5 7 8 9 10 11 13 15 16 17 19 21 21 17 13 6 354 336 312 287 272 265 263 262 260 259 259 260 263 264 265 267 270 272 272 272 271 270 268 267 268 268 271 280 290 299 307 312 305 302 309 312 312 314
263 264 265 267 268 268 268 270 273 276 279 284 290 293 295 301 306 306 308 311 314 318 323 330 335 338 342 347 349 352 354 355 356 358 1 3 5 6 7 7 9 11 13 14 16 18 20 19 15 10 2 349 336 316 296 285 274 266 262 261 261 260 260 264 266 266 267 268 268 271 277 274 264 262 267 266 266 273 278 283 289 294 295 295 298 301 303 304
263 263 264 265 266 267 268 270 272 274 277 281 284 286 291 297 300 302 304 306 309 313 317 322 327 331 336 341 343 346 349 350 352 355 358 0 1 2 4 5 6 7 8 10 12 14 17 18 16 13 6 354 347 337 317 307 294 277 268 264 262 261 260 262 266 267 268 267 267 269 273 272 265 261 263 263 261 260 261 269 276 278 281 288 292 293 294 297
262 262 261 262 263 266 268 271 272 272 273 276 279 284 289 292 295 298 300 301 304 308 311 315 319 323 329 335 337 339 343 345 347 351 355 358 359 359 1 2 3 4 5 6 8 10 12 14 15 15 9 359 353 348 334 319 309 295 282 274 269 264 261 261 263 265 267 267 267 266 264 264 266 267 265 263 261 260 261 266 270 272 277 285 289 288 287 289
258 257 257 257 259 263 268 271 270 269 268 271 277 282 286 288 290 293 295 296 299 302 305 307 311 315 321 328 331 332 337 340 342 346 352 356 357 357 358 0 1 1 2 3 4 6 8 9 11 13 11 4 357 353 346 334 321 309 299 292 285 274 265 262 262 263 265 266 266 265 262 261 263 266 268 267 266 264 264 266 267 268 273 279 283 284 285 285
254 254 255 257 258 261 266 269 268 266 266 270 275 279 281 283 285 288 290 291 293 295 298 301 305 309 314 320 324 327 333 336 337 342 349 352 354 355 355 357 359 359 359 360 1 3 4 5 6 8 10 8 2 355 350 344 336 324 311 305 300 289 276 268 264 263 263 265 266 266 263 261 262 263 263 266 268 268 268 268 267 266 267 270 273 278 282 282
252 252 254 257 259 259 262 265 265 265 266 269 272 274 277 280 282 285 286 285 287 290 292 296 300 303 308 314 319 324 329 332 332 337 345 347 349 352 352 353 356 357 357 356 358 359 0 1 2 3 5 6 5 360 353 346 341 334 322 311 304 296 283 273 269 266 265 265 266 266 264 262 262 263 263 264 266 267 268 268 267 267 266 266 266 270 275 277
251 251 253 256 258 258 259 261 263 264 264 266 268 272 275 278 280 282 281 280 283 286 288 291 295 298 303 308 313 319 324 325 326 332 339 341 343 348 350 349 352 355 355 354 355 356 357 357 358 358 0 3 3 2 357 347 339 334 330 322 309 294 285 282 281 279 274 270 267 265 265 264 263 263 264 264 265 265 265 264 264 265 266 266 266 267 271 274
248 250 252 254 256 256 256 257 259 261 263 265 267 270 272 274 275 276 276 278 280 283 285 288 291 293 297 303 308 314 317 318 321 327 332 334 337 342 346 346 347 351 354 353 353 354 354 354 354 354 356 358 360 0 357 349 340 335 331 327 318 303 294 294 296 292 285 278 271 266 266 268 267 265 264 264 265 266 266 265 264 263 264 266 268 267 268 271
244 248 251 253 254 253 253 254 256 258 261 263 264 266 267 268 270 273 275 277 279 280 282 284 286 289 293 298 304 308 309 310 315 321 326 328 331 336 341 342 343 346 350 351 351 351 352 351 350 350 351 355 356 357 356 350 342 337 331 328 325 318 308 302 299 296 290 283 277 273 271 270 270 268 266 265 267 269 269 269 266 264 263 266 268 268 268 269
243 246 248 250 250 250 251 253 254 256 257 258 260 262 263 265 268 272 275 276 276 278 280 281 282 284 289 295 299 302 302 305 310 316 320 322 325 330 334 337 339 342 345 347 348 349 349 349 348 346 347 351 353 353 353 350 345 342 338 332 328 323 314 304 297 294 290 285 282 280 277 275 273 271 269 268 269 271 272 272 270 267 266 268 269 269 268 269
242 244 245 246 246 248 250 251 253 254 255 255 257 260 262 265 267 270 272 272 274 276 277 276 277 280 286 292 295 295 297 300 306 311 314 316 319 324 329 332 335 338 340 342 344 346 346 347 346 344 343 346 349 350 349 347 345 346 343 336 328 322 316 307 298 293 290 289 288 284 280 280 278 276 274 272 272 274 275 276 275 273 273 274 273 271 269 269
240 242 243 245 245 246 247 249 250 252 253 254 256 258 261 263 265 267 268 270 274 276 274 272 273 278 285 290 290 290 292 296 302 306 309 311 315 319 323 326 330 334 336 338 339 342 343 344 344 342 341 342 344 346 345 342 343 346 345 338 331 327 322 312 300 293 290 291 294 291 287 285 281 276 276 277 280 280 279 278 278 277 278 279 279 276 272 269
Height
10831 10829 10826 10824 10821 10818 10815 10812 10808 10805 10801 10796 10792 10787 10782 10777 10772 10767 10762 10757 10753 10748 10743 10739 10735 10732 10729 10727 10724 10722 10719 10717 10715 10713 10712 10711 10710 10710 10710 10710 10711 10711 10711 10712 10712 10713 10714 10713 10713 10713 10711 10710 10710 10711 10711 10711 10712 10712 10713 10713 10714 10714 10714 10714 10715 10715 10715 10715 10715 10715 10716 10716 10717 10718 10719 10719 10719 10721 10723 10725 10726 10727 10728 10728 10729 10730 10731 10731
10832 10829 10827 10824 10821 10818 10815 10812 10809 10805 10801 10797 10793 10788 10783 10778 10773 10767 10763 10758 10753 10748 10743 10739 10735 10732 10729 10726 10724 10721 10718 10716 10714 10712 10712 10711 10711 10711 10711 10712 10712 10713 10714 10714 10715 10715 10715 10714 10713 10713 10712 10711 10711 10711 10712 10712 10712 10713 10713 10714 10715 10714 10714 10714 10715 10715 10715 10715 10715 10715 10716 10717 10717 10718 10719 10719 10719 10720 10722 10724 10725 10726 10726 10727 10727 10728 10729 10730
10831 10829 10827 10824 10821 10818 10816 10813 10809 10806 10802 10798 10794 10789 10784 10779 10774 10768 10763 10758 10754 10749 10744 10739 10735 10732 10729 10726 10723 10720 10717 10715 10713 10712 10712 10711 10711 10712 10712 10712 10713 10714 10714 10714 10715 10715 10715 10714 10714 10714 10713 10713 10713 10713 10713 10713 10714 10714 10713 10714 10714 10715 10715 10715 10715 10715 10716 10715 10715 10715 10716 10717 10717 10718 10719 10719 10719 10720 10721 10722 10724 10725 10725 10726 10726 10727 10728 10728
10831 10829 10827 10824 10821 10819 10816 10813 10810 10806 10803 10799 10795 10791 10786 10780 10775 10770 10764 10759 10754 10749 10744 10740 10735 10732 10728 10725 10722 10719 10716 10714 10712 10711 10711 10712 10712 10712 10712 10713 10714 10714 10714 10715 10715 10715 10715 10715 10715 10716 10715 10714 10715 10715 10715 10715 10715 10715 10714 10713 10714 10714 10715 10714 10714 10715 10716 10716 10716 10716 10716 10717 10718 10718 10719 10719 10719 10720 10721 10722 10723 10724 10725 10725 10726 10726 10727 10727
10831 10829 10827 10824 10822 10819 10816 10813 10810 10807 10803 10800 10796 10792 10787 10782 10776 10771 10765 10760 10755 10750 10745 10740 10735 10731 10728 10725 10721 10718 10715 10713 10712 10712 10712 10713 10713 10713 10713 10714 10715 10715 10715 10716 10716 10715 10715 10716 10717 10717 10716 10716 10716 10716 10716 10716 10716 10715 10715 10714 10713 10714 10714 10714 10713 10714 10715 10716 10716 10716 10716 10717 10718 10718 10719 10719 10719 10720 10721 10721 10722 10723 10724 10725 10725 10726 10727 10727
10832 10829 10827 10825 10822 10819 10816 10814 10811 10807 10804 10801 10797 10793 10788 10783 10778 10772 10766 10761 10756 10751 10746 10741 10736 10732 10728 10724 10720 10717 10714 10712 10712 10712 10713 10714 10714 10713 10714 10715 10715 10716 10716 10716 10716 10715 10716 10717 10718 10717 10716 10716 10717 10717 10716 10716 10716 10716 10715 10714 10713 10713 10713 10713 10713 10713 10714 10715 10715 10715 10716 10716 10717 10717 10718 10718 10719 10720 10720 10721 10722 10722 10723 10724 10725 10725 10726 10727
10832 10829 10827 10825 10822 10820 10817 10814 10811 10808 10805 10801 10798 10794 10789 10784 10779 10774 10768 10762 10757 10752 10746 10741 10737 10732 10728 10724 10720 10717 10714 10713 10712 10712 10713 10714 10714 10713 10714 10714 10715 10715 10716 10716 10716 10716 10716 10717 10717 10717 10717 10716 10717 10717 10717 10716 10716 10715 10714 10713 10712 10712 10712 10712 10712 10712 10713 10713 10714 10714 10714 10715 10716 10716 10717 10718 10718 10719 10720 10720 10721 10722 10722 10723 10724 10724 10725 10726
10831 10829 10827 10825 10823 10820 10817 10815 10812 10809 10805 10802 10798 10795 10791 10786 10781 10775 10770 10764 10758 10753 10747 10742 10737 10733 10728 10724 10720 10717 10715 10713 10713 10713 10714 10714 10713 10713 10713 10714 10715 10716 10716 10717 10717 10717 10717 10717 10717 10717 10717 10716 10717 10717 10717 10716 10715 10714 10713 10712 10712 10711 10711 10711 10711 10711 10711 10712 10713 10713 10714 10714 10715 10715 10716 10717 10717 10718 10719 10720 10720 10721 10721 10722 10723 10723 10724 10725
10832 10830 10827 10825 10823 10821 10818 10815 10812 10809 10806 10803 10799 10795 10792 10787 10783 10777 10772 10766 10760 10754 10749 10744 10738 10734 10729 10725 10721 10717 10715 10714 10714 10714 10714 10713 10713 10712 10713 10715 10716 10717 10718 10718 10719 10719 10718 10718 10718 10717 10717 10717 10717 10717 10717 10716 10715 10715 10714 10713 10712 10711 10711 10711 10710 10710 10710 10711 10711 10712 10713 10713 10714 10715 10715 10716 10716 10717 10718 10719 10719 10720 10720 10721 10721 10722 10723 10723
10832 10830 10828 10825 10823 10821 10818 10816 10813 10810 10807 10803 10800 10796 10793 10789 10784 10779 10774 10768 10762 10756 10750 10745 10740 10735 10730 10726 10722 10718 10716 10715 10715 10715 10714 10714 10714 10714 10715 10717 10717 10718 10719 10719 10720 10719 10719 10718 10719 10718 10717 10717 10717 10717 10716 10715 10714 10715 10714 10713 10712 10711 10711 10710 10710 10710 10710 10711 10711 10712 10712 10713 10714 10714 10715 10715 10716 10717 10717 10718 10718 10718 10719 10720 10720 10720 10721 10721
10832 10830 10828 10826 10823 10821 10819 10816 10813 10810 10807 10804 10801 10797 10794 10790 10786 10781 10776 10770 10764 10758 10752 10747 10741 10736 10731 10727 10723 10719 10718 10717 10717 10716 10715 10715 10716 10717 10718 10719 10719 10719 10720 10720 10720 10719 10719 10719 10720 10719 10718 10718 10718 10718 10717 10716 10715 10716 10715 10714 10713 10712 10711 10711 10710 10710 10710 10711 10711 10712 10712 10713 10714 10714 10715 10715 10716 10716 10717 10717 10717 10718 10718 10719 10719 10719 10720 10720
10832 10830 10828 10826 10824 10821 10819 10816 10814 10811 10808 10805 10802 10798 10795 10791 10787 10783 10778 10772 10766 10760 10755 10749 10743 10738 10733 10728 10724 10721 10720 10719 10718 10717 10717 10717 10718 10720 10720 10720 10720 10721 10721 10721 10720 10720 10720 10720 10720 10720 10719 10719 10719 10718 10718 10717 10717 10717 10716 10715 10713 10712 10711 10711 10710 10710 10710 10711 10711 10712 10712 10713 10714 10714 10715 10715 10715 10716 10716 10716 10716 10717 10717 10718 10718 10718 10718 10719
10832 10830 10828 10826 10824 10822 10819 10817 10814 10812 10809 10806 10802 10799 10796 10792 10789 10785 10780 10775 10769 10763 10757 10751 10745 10740 10735 10731 10726 10723 10722 10721 10720 10720 10720 10720 10721 10721 10721 10721 10722 10722 10722 10722 10721 10720 10721 10721 10720 10720 10720 10719 10719 10718 10719 10719 10718 10717 10716 10715 10714 10712 10712 10711 10711 10711 10711 10711 10711 10712 10712 10713 10713 10714 10714 10715 10715 10715 10715 10715 10715 10716 10716 10717 10717 10717 10717 10717
10832 10830 10828 10826 10824 10822 10819 10817 10815 10812 10809 10806 10803 10800 10797 10793 10790 10786 10782 10777 10771 10765 10760 10753 10747 10742 10738 10733 10729 10725 10724 10724 10723 10723 10723 10723 10723 10722 10722 10722 10723 10723 10722 10722 10722 10721 10721 10721 10720 10720 10720 10719 10719 10719 10719 10719 10718 10717 10716 10715 10714 10713 10712 10712 10711 10711 10711 10711 10712 10712 10712 10712 10713 10713 10713 10713 10714 10714 10714 10714 10715 10716 10716 10716 10716 10716 10716 10716
10832 10830 10828 10826 10824 10822 10820 10817 10815 10812 10810 10807 10804 10801 10798 10794 10791 10788 10784 10779 10774 10768 10762 10755 10749 10745 10741 10737 10732 10728 10727 10726 10726 10726 10726 10725 10724 10724 10723 10723 10723 10722 10722 10722 10722 10722 10722 10721 10720 10720 10720 10720 10719 10719 10719 10719 10718 10717 10717 10716 10714 10713 10713 10712 10712 10711 10711 10711 10712 10712 10712 10712 10712 10712 10712 10712 10713 10713 10713 10714 10715 10715 10715 10715 10715 10715 10715 10715
10831 10830 10828 10826 10824 10822 10820 10817 10815 10813 10810 10807 10805 10802 10798 10795 10792 10789 10786 10782 10776 10771 10764 10757 10751 10748 10744 10740 10735 10731 10730 10729 10729 10729 10728 10727 10726 10725 10724 10724 10723 10723 10723 10723 10723 10723 10723 10722 10721 10720 10720 10720 10720 10719 10719 10719 10718 10718 10717 10716 10715 10714 10714 10713 10713 10712 10712 10712 10712 10712 10712 10711 10711 10711 10711 10712 10712 10712 10713 10714 10714 10715 10715 10715 10714 10714 10714 10714
10831 10829 10828 10826 10824 10822 10820 10818 10815 10813 10810 10808 10805 10802 10799 10796 10793 10790 10787 10784 10779 10773 10768 10761 10754 10751 10748 10743 10738 10734 10733 10732 10732 10731 10730 10729 10728 10727 10726 10725 10724 10724 10724 10724 10724 10724 10724 10723 10722 10721 10721 10721 10720 10720 10719 10719 10719 10718 10717 10716 10716 10715 10714 10714 10714 10713 10713 10713 10713 10712 10712 10711 10711 10711 10711 10711 10712 10712 10713 10713 10713 10714 10714 10714 10714 10714 10714 10714
10831 10829 10828 10826 10824 10822 10820 10818 10815 10813 10811 10808 10806 10803 10800 10797 10794 10791 10788 10784 10780 10775 10770 10763 10758 10754 10751 10746 10741 10737 10735 10734 10734 10733 10732 10731 10730 10729 10727 10726 10726 10726 10726 10726 10726 10725 10725 10724 10723 10722 10722 10721 10720 10720 10720 10719 10719 10718 10717 10716 10716 10715 10715 10714 10714 10714 10714 10713 10713 10712 10712 10711 10711 10711 10712 10712 10712 10713 10713 10713 10713 10713 10714 10714 10714 10713 10713 10713
10830 10829 10827 10826 10824 10822 10820 10818 10816 10813 10811 10809 10806 10803 10801 10798 10795 10792 10789 10785 10781 10777 10773 10767 10761 10757 10753 10749 10744 10740 10738 10736 10735 10734 10733 10733 10732 10731 10729 10728 10728 10728 10727 10727 10726 10726 10725 10724 10724 10723 10722 10720 10720 10719 10719 10718 10718 10718 10717 10717 10717 10716 10715 10715 10715 10715 10714 10714 10713 10712 10712 10712 10712 10712 10712 10712 10712 10713 10713 10712 10713 10713 10713 10713 10713 10713 10713 10713
10829 10828 10827 10825 10824 10822 10820 10818 10816 10814 10811 10809 10806 10804 10801 10798 10796 10793 10790 10787 10782 10779 10775 10769 10764 10760 10755 10752 10748 10743 10740 10738 10736 10735 10734 10733 10732 10732 10731 10730 10729 10729 10728 10727 10726 10726 10725 10724 10724 10723 10722 10721 10720 10719 10718 10718 10717 10717 10717 10717 10717 10717 10716 10716 10716 10716 10715 10714 10714 10713 10713 10712 10712 10712 10713 10713 10713 10713 10712 10712 10713 10713 10713 10713 10713 10713 10713 10712
10828 10827 10826 10825 10823 10822 10819 10817 10816 10814 10812 10809 10807 10805 10802 10799 10797 10794 10791 10788 10784 10781 10777 10772 10768 10764 10760 10756 10751 10747 10743 10740 10738 10737 10735 10734 10733 10733 10732 10731 10730 10729 10728 10727 10727 10726 10726 10725 10724 10723 10722 10721 10720 10720 10719 10719 10718 10718 10717 10717 10718 10718 10718 10718 10717 10717 10716 10715 10715 10714 10713 10713 10713 10713 10713 10713 10713 10713 10712 10713 10713 10713 10713 10713 10713 10712 10712 10712
10827 10826 10825 10824 10823 10821 10819 10817 10815 10814 10812 10809 10807 10805 10803 10800 10798 10795 10792 10789 10787 10784 10780 10776 10773 10769 10765 10760 10754 10749 10745 10743 10740 10738 10736 10735 10734 10734 10733 10732 10731 10729 10729 10728 10728 10727 10726 10725 10725 10723 10723 10722 10722 10721 10721 10720 10719 10718 10717 10717 10718 10719 10719 10719 10718 10717 10717 10716 10716 10715 10714 10714 10714 10713 10713 10713 10713 10713 10713 10713 10713 10713 10713 10713 10713 10713 10713 10713
10826 10825 10824 10823 10822 10821 10819 10817 10815 10813 10812 10809 10807 10805 10803 10800 10798 10795 10793 10790 10788 10786 10784 10781 10776 10773 10768 10762 10756 10751 10748 10745 10742 10739 10737 10736 10735 10734 10733 10732 10731 10730 10729 10729 10729 10728 10727 10726 10726 10724 10724 10724 10724 10723 10723 10721 10720 10719 10719 10719 10719 10719 10720 10720 10719 10718 10718 10717 10716 10715 10715 10714 10714 10713 10713 10713 10713 10713 10713 10713 10714 10714 10713 10713 10713 10713 10713 10713
10825 10824 10823 10822 10821 10820 10818 10816 10815 10813 10811 10809 10807 10805 10803 10800 10798 10796 10794 10792 10790 10789 10786 10781 10777 10774 10770 10764 10758 10754 10750 10747 10744 10741 10739 10737 10736 10734 10733 10732 10732 10731 10730 10730 10729 10729 10728 10727 10727 10726 10725 10725 10725 10724 10724 10722 10720 10720 10720 10720 10720 10720 10720 10720 10720 10719 10718 10718 10717 10716 10716 10715 10715 10714 10713 10713 10713 10713 10714 10714 10714 10714 10714 10713 10713 10713 10713 10713
10824 10823 10822 10821 10820 10819 10818 10816 10814 10812 10811 10809 10807 10805 10802 10800 10798 10796 10794 10793 10791 10788 10784 10780 10777 10775 10771 10766 10760 10756 10752 10749 10746 10744 10741 10739 10736 10735 10734 10733 10733 10732 10731 10730 10730 10729 10728 10728 10728 10727 10726 10725 10725 10725 10724 10723 10721 10721 10721 10721 10721 10720 10720 10720 10719 10719 10719 10718 10718 10717 10716 10716 10715 10714 10714 10714 10714 10714 10714 10714 10714 10714 10714 10713 10713 10713 10714 10714
10822 10821 10820 10819 10818 10818 10816 10815 10813 10812 10811 10809 10807 10805 10803 10800 10798 10796 10794 10792 10789 10786 10783 10781 10780 10777 10773 10768 10763 10759 10755 10751 10748 10745 10742 10740 10737 10736 10734 10734 10734 10733 10732 10731 10730 10730 10729 10729 10729 10728 10727 10726 10726 10725 10725 10723 10722 10721 10721 10721 10721 10721 10720 10720 10719 10719 10719 10719 10719 10718 10717 10717 10716 10715 10715 10715 10715 10715 10715 10715 10715 10714 10714 10714 10714 10714 10714 10715
10820 10820 10819 10818 10817 10816 10815 10814 10812 10811 10810 10808 10807 10805 10803 10801 10798 10796 10794 10792 10789 10787 10785 10783 10781 10778 10774 10770 10766 10763 10758 10754 10750 10746 10743 10741 10739 10737 10735 10734 10734 10733 10732 10731 10731 10730 10730 10729 10729 10728 10727 10727 10726 10726 10725 10724 10723 10723 10722 10722 10722 10722 10721 10721 10720 10720 10720 10720 10720 10719 10718 10718 10717 10716 10716 10715 10715 10715 10715 10715 10715 10715 10714 10714 10715 10715 10715 10715
10818 10818 10817 10816 10816 10815 10814 10813 10811 10810 10809 10808 10806 10804 10803 10801 10799 10797 10794 10793 10791 10789 10787 10784 10782 10779 10775 10772 10768 10764 10760 10756 10751 10748 10745 10742 10740 10738 10736 10735 10734 10733 10732 10731 10731 10731 10730 10729 10729 10728 10727 10727 10727 10727 10726 10725 10725 10724 10724 10724 10724 10723 10722 10722 10721 10721 10721 10721 10720 10720 10719 10719 10718 10718 10717 10716 10716 10716 10716 10716 10716 10716 10716 10716 10716 10716 10716 10716
10816 10816 10816 10815 10814 10814 10813 10812 10810 10809 10808 10807 10805 10804 10802 10801 10799 10797 10795 10793 10791 10789 10787 10785 10782 10779 10777 10773 10770 10766 10762 10758 10754 10750 10747 10744 10741 10739 10737 10736 10734 10732 10732 10731 10731 10731 10730 10730 10729 10728 10727 10727 10727 10727 10726 10726 10725 10724 10724 10724 10723 10723 10723 10722 10722 10722 10721 10721 10721 10720 10719 10719 10719 10719 10718 10717 10717 10717 10717 10717 10717 10717 10717 10717 10716 10716 10716 10716
10813 10813 10813 10813 10812 10812 10811 10810 10809 10808 10806 10805 10804 10803 10801 10800 10799 10797 10795 10792 10790 10788 10787 10784 10782 10780 10777 10774 10771 10768 10764 10760 10756 10753 10749 10746 10743 10740 10738 10736 10734 10733 10732 10732 10731 10731 10730 10730 10729 10728 10728 10728 10728 10727 10727 10726 10726 10725 10724 10724 10723 10723 10723 10723 10723 10722 10722 10721 10721 10720 10720 10720 10719 10719 10719 10718 10717 10717 10717 10717 10717 10717 10717 10717 10717 10717 10717 10716
10811 10811 10811 10811 10810 10810 10809 10809 10808 10806 10805 10804 10803 10802 10801 10799 10798 10796 10794 10792 10790 10788 10786 10785 10783 10780 10778 10775 10772 10769 10766 10762 10758 10756 10753 10748 10744 10741 10739 10737 10735 10733 10732 10732 10731 10731 10730 10729 10729 10728 10728 10728 10728 10728 10727 10727 10726 10725 10724 10724 10724 10724 10724 10724 10723 10723 10722 10722 10721 10721 10721 10720 10720 10720 10719 10718 10718 10718 10718 10717 10717 10717 10717 10717 10717 10717 10716 10716
10807 10808 10808 10808 10808 10808 10807 10807 10806 10805 10803 10803 10802 10801 10800 10798 10797 10795 10794 10791 10789 10787 10786 10784 10782 10781 10778 10776 10773 10770 10767 10763 10761 10758 10755 10750 10746 10743 10741 10738 10736 10734 10733 10731 10730 10730 10729 10729 10728 10728 10728 10728 10728 10728 10727 10726 10726 10725 10724 10724 10724 10724 10724 10724 10723 10723 10722 10722 10721 10721 10721 10721 10720 10720 10720 10719 10719 10718 10718 10717 10717 10717 10717 10716 10716 10716 10716 10716
10804 10805 10805 10805 10805 10805 10805 10805 10804 10803 10802 10801 10800 10799 10798 10797 10796 10795 10793 10791 10789 10787 10785 10782 10781 10780 10777 10775 10773 10770 10768 10765 10762 10760 10756 10753 10749 10746 10742 10739 10737 10735 10733 10731 10730 10729 10729 10728 10728 10728 10728 10728 10727 10727 10727 10726 10726 10725 10724 10724 10724 10724 10724 10723 10723 10723 10722 10722 10722 10721 10721 10721 10721 10720 10720 10720 10719 10719 10718 10717 10716 10716 10716 10716 10716 10715 10715 10715
10800 10801 10801 10802 10802 10803 10802 10802 10801 10801 10800 10799 10798 10797 10796 10796 10795 10794 10793 10791 10789 10787 10785 10782 10781 10779 10777 10775 10773 10771 10769 10766 10763 10761 10758 10755 10751 10748 10744 10741 10738 10735 10733 10732 10730 10729 10728 10728 10728 10727 10727 10727 10727 10727 10726 10726 10726 10725 10725 10724 10723 10723 10723 10722 10721 10722 10722 10722 10722 10722 10721 10721 10721 10721 10721 10720 10720 10719 10719 10717 10717 10716 10715 10715 10715 10714 10714 10714
10796 10797 10797 10798 10799 10800 10799 10799 10799 10798 10798 10797 10796 10795 10794 10794 10793 10793 10791 10790 10788 10786 10784 10782 10781 10779 10777 10776 10774 10772 10770 10767 10764 10762 10759 10756 10753 10750 10747 10743 10740 10737 10734 10732 10731 10730 10728 10727 10727 10727 10726 10726 10726 10726 10726 10725 10725 10725 10725 10724 10723 10723 10723 10722 10721 10721 10722 10722 10722 10722 10721 10721 10721 10721 10721 10720 10720 10719 10718 10717 10717 10716 10715 10714 10714 10714 10713 10713
10792 10793 10793 10794 10795 10796 10796 10796 10796 10795 10795 10795 10794 10793 10792 10791 10791 10790 10790 10788 10787 10785 10783 10782 10781 10779 10778 10776 10774 10772 10770 10767 10765 10763 10760 10758 10755 10752 10749 10746 10742 10739 10736 10734 10732 10730 10728 10727 10727 10726 10726 10725 10726 10725 10725 10725 10725 10725 10724 10724 10723 10723 10722 10722 10721 10720 10721 10722 10722 10722 10722 10721 10721 10721 10720 10719 10719 10719 10718 10717 10716 10715 10714 10713 10713 10713 10712 10712
10788 10789 10789 10790 10792 10792 10792 10792 10792 10792 10792 10793 10792 10791 10790 10789 10789 10789 10788 10787 10785 10784 10782 10781 10780 10779 10777 10775 10773 10771 10770 10768 10766 10764 10761 10758 10756 10753 10750 10747 10744 10741 10738 10735 10733 10731 10729 10727 10726 10726 10725 10725 10725 10725 10725 10724 10724 10724 10724 10723 10722 10722 10722 10721 10721 10720 10720 10721 10721 10722 10722 10721 10721 10721 10720 10719 10718 10718 10718 10717 10716 10715 10713 10712 10712 10712 10712 10712
10783 10784 10784 10786 10788 10788 10788 10789 10789 10789 10789 10790 10789 10789 10788 10787 10787 10787 10786 10786 10784 10783 10781 10780 10779 10778 10776 10775 10773 10771 10769 10767 10766 10764 10761 10759 10756 10754 10751 10748 10746 10743 10740 10737 10734 10732 10730 10728 10727 10726 10725 10724 10724 10724 10724 10723 10723 10723 10723 10722 10721 10721 10721 10721 10720 10720 10719 10719 10721 10721 10721 10721 10720 10720 10720 10719 10718 10718 10718 10717 10716 10714 10713 10711 10711 10710 10711 10711
10778 10779 10780 10782 10783 10784 10784 10785 10785 10785 10786 10787 10787 10786 10786 10785 10784 10784 10784 10784 10783 10781 10780 10779 10778 10776 10775 10773 10772 10770 10768 10766 10765 10764 10761 10759 10756 10754 10751 10749 10747 10744 10741 10738 10736 10733 10731 10729 10728 10727 10726 10725 10724 10723 10723 10723 10722 10721 10722 10721 10720 10720 10720 10720 10720 10719 10719 10719 10719 10720 10720 10720 10719 10719 10719 10719 10718 10717 10717 10717 10716 10715 10713 10711 10710 10709 10709 10710
10773 10774 10775 10777 10779 10779 10780 10780 10780 10782 10782 10783 10784 10783 10783 10782 10782 10781 10781 10781 10781 10779 10778 10777 10776 10774 10773 10771 10770 10769 10767 10765 10763 10762 10760 10759 10756 10754 10752 10750 10747 10745 10742 10739 10737 10734 10732 10729 10728 10727 10726 10725 10724 10723 10722 10722 10721 10720 10720 10720 10719 10719 10719 10719 10719 10718 10718 10718 10718 10719 10719 10719 10719 10718 10718 10718 10717 10716 10716 10716 10715 10714 10712 10711 10709 10708 10707 10708
10767 10769 10770 10773 10775 10774 10775 10776 10776 10777 10778 10780 10781 10780 10779 10780 10780 10779 10778 10779 10778 10777 10776 10775 10774 10773 10771 10770 10768 10767 10766 10764 10762 10761 10759 10757 10756 10754 10752 10750 10747 10745 10743 10740 10737 10735 10732 10730 10728 10726 10725 10724 10723 10722 10721 10720 10719 10718 10718 10718 10718 10718 10718 10717 10717 10717 10717 10717 10718 10718 10718 10718 10718 10717 10716 10716 10716 10715 10714 10714 10714 10713 10711 10710 10709 10707 10707 10706
10762 10764 10765 10769 10771 10770 10770 10772 10772 10773 10775 10776 10777 10776 10776 10777 10777 10776 10776 10776 10775 10775 10774 10773 10772 10771 10770 10768 10767 10766 10764 10763 10761 10760 10758 10756 10754 10753 10751 10749 10747 10745 10742 10740 10738 10735 10733 10730 10728 10726 10724 10722 10721 10721 10719 10718 10718 10717 10716 10716 10716 10716 10716 10716 10715 10715 10715 10716 10716 10717 10717 10716 10715 10715 10715 10714 10714 10713 10712 10712 10713 10712 10711 10709 10708 10707 10706 10705
10756 10758 10760 10764 10766 10765 10765 10767 10768 10769 10771 10771 10772 10772 10773 10773 10773 10773 10773 10773 10772 10772 10772 10771 10770 10769 10768 10767 10765 10764 10763 10762 10760 10759 10758 10756 10754 10752 10751 10749 10746 10744 10742 10740 10738 10735 10732 10730 10728 10726 10724 10722 10720 10719 10718 10717 10716 10715 10714 10714 10714 10715 10714 10714 10713 10713 10714 10714 10714 10715 10715 10714 10713 10713 10712 10711 10711 10711 10710 10710 10711 10710 10709 10708 10707 10705 10704 10704
10750 10753 10755 10758 10761 10761 10761 10763 10764 10764 10766 10767 10767 10768 10769 10769 10770 10770 10770 10770 10770 10769 10769 10768 10768 10767 10766 10765 10763 10762 10761 10760 10759 10757 10756 10755 10753 10751 10749 10747 10745 10743 10741 10740 10737 10735 10732 10730 10728 10726 10724 10721 10719 10717 10716 10716 10715 10714 10713 10712 10712 10713 10712 10711 10710 10711 10711 10712 10712 10712 10712 10713 10712 10711 10710 10708 10708 10708 10707 10708 10708 10707 10706 10706 10705 10704 10703 10702
10745 10747 10749 10752 10756 10756 10757 10758 10759 10759 10761 10762 10763 10764 10764 10765 10766 10766 10766 10766 10766 10766 10766 10766 10765 10764 10764 10763 10761 10760 10758 10757 10756 10756 10755 10753 10752 10750 10748 10746 10744 10742 10740 10739 10737 10735 10733 10730 10727 10725 10723 10721 10718 10716 10714 10713 10713 10712 10711 10710 10710 10710 10709 10708 10708 10708 10708 10708 10709 10709 10709 10710 10710 10710 10709 10707 10705 10705 10705 10705 10705 10704 10704 10704 10703 10702 10701 10700
10738 10741 10744 10746 10749 10751 10752 10753 10754 10755 10757 10758 10759 10759 10759 10760 10762 10763 10763 10763 10763 10763 10763 10763 10762 10762 10761 10760 10760 10758 10756 10754 10753 10753 10753 10751 10750 10749 10747 10745 10744 10743 10740 10737 10736 10734 10732 10730 10727 10725 10723 10721 10718 10716 10713 10711 10710 10710 10709 10708 10707 10707 10706 10705 10704 10705 10706 10706 10706 10705 10705 10706 10707 10707 10707 10705 10703 10702 10702 10702 10702 10701 10701 10700 10700 10699 10698 10698
10732 10736 10739 10740 10743 10746 10747 10748 10750 10751 10752 10753 10754 10754 10755 10755 10757 10759 10759 10759 10759 10759 10759 10759 10759 10759 10758 10757 10757 10756 10754 10752 10751 10750 10750 10749 10748 10748 10746 10743 10743 10742 10740 10737 10735 10733 10731 10729 10727 10725 10722 10720 10718 10715 10713 10710 10708 10706 10706 10705 10705 10704 10702 10700 10701 10702 10703 10703 10703 10702 10701 10702 10703 10703 10703 10702 10700 10699 10699 10699 10699 10698 10698 10697 10696 10696 10695 10695
10726 10730 10733 10734 10736 10739 10741 10742 10744 10746 10748 10749 10749 10750 10751 10750 10752 10754 10755 10755 10755 10755 10756 10756 10756 10756 10756 10755 10755 10754 10752 10750 10749 10748 10747 10746 10746 10746 10745 10742 10740 10740 10739 10736 10734 10731 10730 10728 10726 10724 10722 10719 10717 10714 10712 10709 10707 10704 10702 10701 10702 10701 10699 10698 10698 10700 10700 10700 10700 10699 10698 10698 10698 10698 10698 10698 10697 10696 10696 10696 10695 10695 10695 10695 10693 10693 10693 10692
10720 10724 10727 10728 10729 10732 10735 10737 10739 10741 10743 10744 10744 10745 10746 10746 10747 10749 10751 10751 10751 10751 10752 10752 10752 10753 10753 10753 10752 10752 10750 10748 10748 10747 10745 10744 10743 10743 10743 10742 10739 10738 10737 10736 10733 10731 10729 10727 10724 10722 10720 10719 10716 10713 10711 10708 10705 10703 10700 10698 10698 10697 10697 10696 10696 10697 10697 10696 10695 10696 10696 10695 10694 10694 10694 10695 10694 10694 10693 10693 10692 10692 10693 10692 10691 10690 10690 10690
10714 10718 10721 10722 10722 10725 10728 10731 10733 10736 10738 10739 10739 10739 10741 10741 10742 10745 10746 10747 10747 10747 10748 10748 10748 10749 10750 10750 10750 10749 10746 10745 10745 10745 10743 10741 10740 10740 10740 10740 10738 10736 10734 10734 10732 10730 10728 10726 10723 10720 10718 10717 10715 10712 10710 10707 10704 10701 10699 10697 10695 10694 10693 10693 10693 10693 10693 10692 10692 10692 10692 10692 10691 10690 10690 10691 10691 10691 10691 10690 10689 10689 10690 10689 10688 10686 10686 10686
10708 10711 10714 10715 10716 10719 10722 10724 10727 10730 10732 10733 10734 10734 10736 10737 10738 10740 10742 10742 10742 10744 10744 10743 10743 10744 10746 10747 10747 10746 10743 10742 10742 10743 10741 10739 10738 10737 10736 10736 10736 10735 10733 10731 10730 10729 10727 10725 10723 10719 10716 10715 10713 10711 10708 10706 10703 10700 10698 10696 10693 10691 10690 10689 10689 10689 10690 10689 10689 10690 10689 10689 10689 10688 10686 10687 10688 10688 10688 10687 10686 10686 10686 10686 10684 10683 10682 10683
10700 10702 10706 10708 10710 10712 10715 10718 10721 10723 10725 10727 10729 10730 10731 10732 10733 10735 10736 10737 10738 10740 10740 10739 10737 10738 10741 10744 10744 10742 10740 10739 10740 10740 10738 10737 10736 10735 10734 10733 10733 10733 10731 10729 10727 10725 10724 10722 10720 10718 10715 10713 10712 10710 10707 10704 10701 10699 10697 10694 10691 10689 10688 10686 10686 10686 10686 10687 10687 10687 10687 10687 10686 10685 10683 10684 10685 10685 10684 10683 10683 10684 10683 10682 10680 10679 10679 10680